ABQ704 OPLA-OPSD

Flight info

Callsign ABQ704
Flight time N/A
Altitude 36000
Route AKBER DCT MATIN DCT ISDUR DCT RN/N0453F350 DCT KAGLO J186 KAPMI J154 BUNGI DCT DELDA DCT BIREB DCT SD
Aircraft A320/M-SDE3FGHIRWY/LB1

Departure

Time N/A
Airport Allama Iqbal International Airport (OPLA)

Arrival

Time 2026-04-25 11:02
Airport Skardu International Airport (OPSD)
Time Latitude Longitude Altitude Speed Heading
2026-04-25 10:31 33.80384 73.18523 35966 ft 465 kts
2026-04-25 10:31 33.83521 73.19462 35991 ft 465 kts
2026-04-25 10:32 33.89798 73.21358 35986 ft 466 kts
2026-04-25 10:32 33.96087 73.23248 36010 ft 466 kts
2026-04-25 10:33 34.02342 73.25129 36018 ft 466 kts
2026-04-25 10:33 34.08625 73.27026 36013 ft 466 kts
2026-04-25 10:34 34.14917 73.28931 36015 ft 465 kts
2026-04-25 10:34 34.21200 73.30844 36018 ft 467 kts
2026-04-25 10:35 34.27498 73.32756 36012 ft 467 kts
2026-04-25 10:35 34.33767 73.34651 36022 ft 468 kts
2026-04-25 10:36 34.40022 73.36546 36014 ft 469 kts
2026-04-25 10:36 34.46368 73.38487 36106 ft 471 kts
2026-04-25 10:37 34.52721 73.40435 36139 ft 471 kts
2026-04-25 10:37 34.59039 73.42364 36148 ft 471 kts
2026-04-25 10:38 34.65396 73.44311 36207 ft 472 kts
2026-04-25 10:38 34.71752 73.46258 36196 ft 470 kts
2026-04-25 10:39 34.78016 73.48724 36207 ft 482 kts 20°
2026-04-25 10:39 34.83595 73.53246 36311 ft 491 kts 32°
2026-04-25 10:40 34.88995 73.58333 36314 ft 491 kts 32°
2026-04-25 10:40 34.94404 73.63418 36279 ft 494 kts 32°
2026-04-25 10:41 34.99827 73.68517 36294 ft 491 kts 33°
2026-04-25 10:41 35.05204 73.73588 36280 ft 493 kts 32°
2026-04-25 10:42 35.10631 73.78732 36287 ft 494 kts 33°
2026-04-25 10:42 35.16041 73.83869 36297 ft 492 kts 33°
2026-04-25 10:43 35.21456 73.89002 36259 ft 493 kts 33°
2026-04-25 10:43 35.26844 73.94110 36220 ft 493 kts 33°
2026-04-25 10:44 35.32258 73.99273 36211 ft 494 kts 33°
2026-04-25 10:44 35.37671 74.04455 36227 ft 491 kts 34°
2026-04-25 10:45 35.42415 74.10613 36215 ft 505 kts 53°
2026-04-25 10:45 35.45801 74.18150 36213 ft 510 kts 61°
2026-04-25 10:46 35.49059 74.25880 36229 ft 510 kts 60°
2026-04-25 10:46 35.52322 74.33600 35993 ft 510 kts 61°
2026-04-25 10:46 35.53945 74.37467 35222 ft 512 kts 61°
2026-04-25 10:47 35.55583 74.41387 34190 ft 518 kts 60°
2026-04-25 10:47 35.57233 74.45340 32949 ft 523 kts 61°
2026-04-25 10:47 35.58892 74.49310 31844 ft 523 kts 61°
2026-04-25 10:47 35.60538 74.53252 30688 ft 526 kts 60°
2026-04-25 10:48 35.62201 74.57247 29578 ft 523 kts 61°
2026-04-25 10:48 35.63863 74.61222 28226 ft 523 kts 60°
2026-04-25 10:48 35.65569 74.65134 27196 ft 517 kts 59°
2026-04-25 10:48 35.67314 74.68975 26307 ft 511 kts 59°
2026-04-25 10:49 35.68875 74.72858 25559 ft 504 kts 68°
2026-04-25 10:49 35.69601 74.75564 25008 ft 501 kts 76°
2026-04-25 10:49 35.70172 74.81171 24029 ft 490 kts 91°
2026-04-25 10:49 35.69850 74.85300 23107 ft 483 kts 102°
2026-04-25 10:50 35.69002 74.89178 22459 ft 471 kts 108°
2026-04-25 10:50 35.68066 74.93013 21768 ft 464 kts 108°
2026-04-25 10:50 35.67153 74.96803 21082 ft 459 kts 108°
2026-04-25 10:50 35.66257 75.00540 20465 ft 452 kts 108°
2026-04-25 10:51 35.65375 75.04220 19856 ft 446 kts 108°
2026-04-25 10:51 35.64500 75.07857 19289 ft 440 kts 107°
2026-04-25 10:51 35.63633 75.11439 18735 ft 434 kts 107°
2026-04-25 10:51 35.62771 75.14973 18138 ft 429 kts 107°
2026-04-25 10:52 35.61933 75.18407 17596 ft 422 kts 108°
2026-04-25 10:52 35.61094 75.21842 17030 ft 417 kts 107°
2026-04-25 10:52 35.60262 75.25240 16463 ft 414 kts 107°
2026-04-25 10:52 35.59362 75.28576 15896 ft 409 kts 113°
2026-04-25 10:53 35.58020 75.31633 15316 ft 405 kts 125°
2026-04-25 10:53 35.56093 75.34104 14810 ft 399 kts 144°
2026-04-25 10:53 35.53660 75.35646 14351 ft 392 kts 161°
2026-04-25 10:53 35.51102 75.36708 14020 ft 385 kts 162°
2026-04-25 10:54 35.48706 75.38009 13665 ft 381 kts 147°
2026-04-25 10:54 35.47331 75.39401 13426 ft 380 kts 133°
2026-04-25 10:54 35.45267 75.42846 12867 ft 378 kts 129°
2026-04-25 10:54 35.43390 75.45050 12216 ft 375 kts 144°
2026-04-25 10:55 35.41302 75.46922 11778 ft 368 kts 139°
2026-04-25 10:55 35.39352 75.48836 11645 ft 350 kts 146°
2026-04-25 10:55 35.37326 75.50260 11515 ft 322 kts 154°
2026-04-25 10:55 35.35302 75.51099 11391 ft 296 kts 173°
2026-04-25 10:56 35.33319 75.51182 11269 ft 276 kts 180°
2026-04-25 10:56 35.31458 75.51269 11144 ft 267 kts 171°
2026-04-25 10:56 35.29801 75.52106 11010 ft 251 kts 141°
2026-04-25 10:56 35.28793 75.53720 10880 ft 232 kts 110°
2026-04-25 10:57 35.28675 75.55595 10801 ft 217 kts 77°
2026-04-25 10:57 35.29410 75.57137 10656 ft 208 kts 40°
2026-04-25 10:57 35.30692 75.57808 10524 ft 200 kts
2026-04-25 10:57 35.32030 75.57479 10275 ft 197 kts 334°
2026-04-25 10:58 35.33187 75.56674 10056 ft 185 kts 328°
2026-04-25 10:58 35.34229 75.55862 9846 ft 174 kts 327°
2026-04-25 10:58 35.35224 75.55085 9697 ft 166 kts 328°
2026-04-25 10:58 35.36217 75.54379 9530 ft 164 kts 330°
2026-04-25 10:59 35.37214 75.53700 9323 ft 163 kts 332°
2026-04-25 10:59 35.38225 75.53100 9131 ft 160 kts 339°
2026-04-25 10:59 35.39284 75.52772 9026 ft 155 kts 352°
2026-04-25 10:59 35.40355 75.52688 8996 ft 154 kts 358°
2026-04-25 11:00 35.41385 75.52429 8996 ft 152 kts 326°
2026-04-25 11:00 35.41950 75.51367 8998 ft 154 kts 277°
2026-04-25 11:00 35.41669 75.50151 9003 ft 155 kts 229°
2026-04-25 11:00 35.40747 75.49556 8754 ft 154 kts 183°
2026-04-25 11:01 35.39675 75.49692 8347 ft 157 kts 167°
2026-04-25 11:01 35.38658 75.50146 8022 ft 156 kts 152°
2026-04-25 11:01 35.37741 75.50839 7875 ft 154 kts 147°
2026-04-25 11:01 35.36851 75.51542 7724 ft 150 kts 146°
2026-04-25 11:02 35.35974 75.52231 7561 ft 150 kts 147°
2026-04-25 11:02 35.35111 75.52910 7434 ft 149 kts 147°
2026-04-25 11:02 35.34329 75.53531 7402 ft 103 kts 147°
2026-04-25 11:02 35.33972 75.53812 7400 ft 31 kts 147°
2026-04-25 11:03 35.33797 75.53953 7399 ft 29 kts 146°
2026-04-25 11:03 35.33631 75.54084 7399 ft 28 kts 147°
2026-04-25 11:03 35.33471 75.54210 7402 ft 27 kts 147°
2026-04-25 11:03 35.33317 75.54332 7402 ft 22 kts 147°
2026-04-25 11:04 35.33234 75.54319 7402 ft 14 kts 237°
2026-04-25 11:04 35.33185 75.54224 7402 ft 12 kts 237°
2026-04-25 11:04 35.33147 75.54153 7403 ft 6 kts 237°
2026-04-25 11:04 35.33133 75.54127 7402 ft 5 kts 236°
2026-04-25 11:05 35.33113 75.54090 7402 ft 4 kts 237°
2026-04-25 11:05 35.33085 75.54082 7403 ft 5 kts 166°
2026-04-25 11:05 35.33066 75.54094 7402 ft 0 kts 147°